Time,TemperatureF,DewpointF,PressureIn,WindDirection,WindDirectionDegrees,WindSpeedMPH,WindSpeedGustMPH,Humidity,HourlyPrecipIn,Conditions,Clouds,dailyrainin,SoftwareType,DateUTC
2013-06-05 00:00:00,64.1,49.0,30.07,NW,325,5.0,5.0,58,0.00,,,0.00,Wunderground v.1.15,2013-06-05 04:00:00,
2013-06-05 00:05:00,64.1,49.5,30.07,NNW,336,5.0,5.0,59,0.00,,,0.00,Wunderground v.1.15,2013-06-05 04:05:00,
2013-06-05 00:10:00,64.1,49.5,30.07,NNW,337,4.0,4.0,59,0.00,,,0.00,Wunderground v.1.15,2013-06-05 04:10:00,
2013-06-05 00:15:00,63.9,49.3,30.07,NW,325,2.0,4.0,59,0.00,,,0.00,Wunderground v.1.15,2013-06-05 04:15:00,
2013-06-05 00:20:00,63.7,50.0,30.07,NNW,330,2.0,4.0,61,0.00,,,0.00,Wunderground v.1.15,2013-06-05 04:20:00,
2013-06-05 00:25:00,63.6,49.0,30.07,NW,325,3.0,4.0,59,0.00,,,0.00,Wunderground v.1.15,2013-06-05 04:25:00,
2013-06-05 00:30:00,63.5,49.4,30.07,NNW,346,3.0,3.0,60,0.00,,,0.00,Wunderground v.1.15,2013-06-05 04:30:00,
2013-06-05 00:40:00,63.3,48.7,30.07,North,357,2.0,2.0,59,0.00,,,0.00,Wunderground v.1.15,2013-06-05 04:40:00,
2013-06-05 00:45:00,63.3,49.2,30.07,NNW,333,2.0,2.0,60,0.00,,,0.00,Wunderground v.1.15,2013-06-05 04:45:00,
2013-06-05 00:50:00,63.1,49.4,30.07,NNW,348,2.0,4.0,61,0.00,,,0.00,Wunderground v.1.15,2013-06-05 04:50:00,
2013-06-05 00:55:00,62.9,47.9,30.07,NW,319,3.0,4.0,58,0.00,,,0.00,Wunderground v.1.15,2013-06-05 04:55:00,
2013-06-05 01:00:00,62.8,47.8,30.07,NNW,327,3.0,3.0,58,0.00,,,0.00,Wunderground v.1.15,2013-06-05 05:00:00,
2013-06-05 01:10:00,62.5,48.4,30.07,NW,321,4.0,4.0,60,0.00,,,0.00,Wunderground v.1.15,2013-06-05 05:10:00,
2013-06-05 01:20:00,62.4,47.9,30.07,NNW,333,4.0,4.0,59,0.00,,,0.00,Wunderground v.1.15,2013-06-05 05:20:00,
2013-06-05 01:25:00,62.5,48.4,30.07,NW,322,4.0,4.0,60,0.00,,,0.00,Wunderground v.1.15,2013-06-05 05:25:00,
2013-06-05 01:30:00,62.4,47.4,30.07,NW,325,4.0,4.0,58,0.00,,,0.00,Wunderground v.1.15,2013-06-05 05:30:00,
2013-06-05 01:35:00,62.4,47.9,30.07,NNW,329,4.0,4.0,59,0.00,,,0.00,Wunderground v.1.15,2013-06-05 05:35:00,
2013-06-05 01:40:00,62.4,47.9,30.07,NW,322,4.0,4.0,59,0.00,,,0.00,Wunderground v.1.15,2013-06-05 05:40:00,
2013-06-05 01:50:00,62.0,48.0,30.07,NNW,336,4.0,5.0,60,0.00,,,0.00,Wunderground v.1.15,2013-06-05 05:50:00,
2013-06-05 01:55:00,62.0,48.4,30.07,NNW,342,5.0,5.0,61,0.00,,,0.00,Wunderground v.1.15,2013-06-05 05:55:00,
2013-06-05 02:00:00,61.9,47.9,30.07,NW,326,5.0,5.0,60,0.00,,,0.00,Wunderground v.1.15,2013-06-05 06:00:00,
2013-06-05 02:05:00,61.9,48.7,30.07,NNW,332,4.0,5.0,62,0.00,,,0.00,Wunderground v.1.15,2013-06-05 06:05:00,
2013-06-05 02:10:00,61.8,48.2,30.07,NNW,336,3.0,3.0,61,0.00,,,0.00,Wunderground v.1.15,2013-06-05 06:10:00,
2013-06-05 02:20:00,61.8,48.6,30.08,NNW,340,3.0,3.0,62,0.00,,,0.00,Wunderground v.1.15,2013-06-05 06:20:00,
2013-06-05 02:30:00,61.2,47.6,30.07,NW,325,2.0,2.0,61,0.00,,,0.00,Wunderground v.1.15,2013-06-05 06:30:00,
2013-06-05 02:35:00,61.0,48.3,30.07,NW,321,3.0,3.0,63,0.00,,,0.00,Wunderground v.1.15,2013-06-05 06:35:00,
2013-06-05 02:40:00,60.7,47.2,30.08,NW,318,3.0,3.0,61,0.00,,,0.00,Wunderground v.1.15,2013-06-05 06:40:00,
2013-06-05 02:45:00,60.5,47.0,30.08,NW,319,3.0,3.0,61,0.00,,,0.00,Wunderground v.1.15,2013-06-05 06:45:00,
2013-06-05 02:55:00,60.0,47.4,30.07,NW,325,2.0,3.0,63,0.00,,,0.00,Wunderground v.1.15,2013-06-05 06:55:00,
2013-06-05 03:00:00,59.7,47.1,30.07,NW,322,3.0,3.0,63,0.00,,,0.00,Wunderground v.1.15,2013-06-05 07:00:00,
2013-06-05 03:05:00,59.7,47.1,30.08,NW,325,3.0,3.0,63,0.00,,,0.00,Wunderground v.1.15,2013-06-05 07:05:00,
2013-06-05 03:10:00,59.8,47.6,30.08,NNW,339,3.0,3.0,64,0.00,,,0.00,Wunderground v.1.15,2013-06-05 07:10:00,
2013-06-05 03:20:00,59.7,47.1,30.08,NW,325,2.0,2.0,63,0.00,,,0.00,Wunderground v.1.15,2013-06-05 07:20:00,
2013-06-05 03:30:00,59.5,46.9,30.09,NW,326,2.0,2.0,63,0.00,,,0.00,Wunderground v.1.15,2013-06-05 07:30:00,
2013-06-05 03:35:00,59.4,46.8,30.09,NW,325,2.0,2.0,63,0.00,,,0.00,Wunderground v.1.15,2013-06-05 07:35:00,
2013-06-05 03:40:00,59.3,47.1,30.09,NNW,329,2.0,2.0,64,0.00,,,0.00,Wunderground v.1.15,2013-06-05 07:40:00,
2013-06-05 03:45:00,59.1,46.9,30.09,NW,322,2.0,3.0,64,0.00,,,0.00,Wunderground v.1.15,2013-06-05 07:45:00,
2013-06-05 03:50:00,58.9,47.2,30.09,NNW,333,2.0,2.0,65,0.00,,,0.00,Wunderground v.1.15,2013-06-05 07:50:00,
2013-06-05 03:55:00,58.8,48.3,30.09,North,352,2.0,2.0,68,0.00,,,0.00,Wunderground v.1.15,2013-06-05 07:55:00,
2013-06-05 04:05:00,58.5,47.6,30.09,NE,39,1.0,1.0,67,0.00,,,0.00,Wunderground v.1.15,2013-06-05 08:05:00,
2013-06-05 04:10:00,58.6,46.5,30.09,NNE,33,1.0,1.0,64,0.00,,,0.00,Wunderground v.1.15,2013-06-05 08:10:00,
2013-06-05 04:15:00,58.7,46.5,30.08,North,11,1.0,1.0,64,0.00,,,0.00,Wunderground v.1.15,2013-06-05 08:15:00,
2013-06-05 04:25:00,58.7,48.2,30.09,NW,325,1.0,1.0,68,0.00,,,0.00,Wunderground v.1.15,2013-06-05 08:25:00,
2013-06-05 04:30:00,58.5,48.0,30.09,NW,319,0.0,1.0,68,0.00,,,0.00,Wunderground v.1.15,2013-06-05 08:30:00,
2013-06-05 04:40:00,58.0,47.5,30.09,NW,311,1.0,1.0,68,0.00,,,0.00,Wunderground v.1.15,2013-06-05 08:40:00,
2013-06-05 04:45:00,57.9,48.6,30.09,NW,311,1.0,1.0,71,0.00,,,0.00,Wunderground v.1.15,2013-06-05 08:45:00,
2013-06-05 04:50:00,57.8,49.2,30.09,NW,312,0.0,0.0,73,0.00,,,0.00,Wunderground v.1.15,2013-06-05 08:50:00,
2013-06-05 04:55:00,57.6,49.4,30.10,NW,311,0.0,0.0,74,0.00,,,0.00,Wunderground v.1.15,2013-06-05 08:55:00,
2013-06-05 05:00:00,57.2,48.6,30.10,NW,312,0.0,0.0,73,0.00,,,0.00,Wunderground v.1.15,2013-06-05 09:00:00,
2013-06-05 05:10:00,56.3,48.5,30.10,NNW,333,1.0,2.0,75,0.00,,,0.00,Wunderground v.1.15,2013-06-05 09:10:00,
2013-06-05 05:15:00,56.7,49.2,30.10,NNW,330,2.0,2.0,76,0.00,,,0.00,Wunderground v.1.15,2013-06-05 09:15:00,
2013-06-05 05:20:00,56.8,48.6,30.11,NW,325,2.0,2.0,74,0.00,,,0.00,Wunderground v.1.15,2013-06-05 09:20:00,
2013-06-05 05:25:00,56.9,49.4,30.11,NW,324,1.0,2.0,76,0.00,,,0.00,Wunderground v.1.15,2013-06-05 09:25:00,
2013-06-05 05:30:00,56.9,49.8,30.12,NNW,328,0.0,0.0,77,0.00,,,0.00,Wunderground v.1.15,2013-06-05 09:30:00,
2013-06-05 05:40:00,56.6,49.1,30.12,NW,307,1.0,1.0,76,0.00,,,0.00,Wunderground v.1.15,2013-06-05 09:40:00,
2013-06-05 05:50:00,56.9,49.8,30.11,NW,311,1.0,1.0,77,0.00,,,0.00,Wunderground v.1.15,2013-06-05 09:50:00,
2013-06-05 05:55:00,57.1,50.0,30.11,NW,322,1.0,1.0,77,0.00,,,0.00,Wunderground v.1.15,2013-06-05 09:55:00,
2013-06-05 06:00:00,57.1,50.0,30.12,NW,322,1.0,1.0,77,0.00,,,0.00,Wunderground v.1.15,2013-06-05 10:00:00,
2013-06-05 06:05:00,57.3,49.4,30.12,NW,318,2.0,2.0,75,0.00,,,0.00,Wunderground v.1.15,2013-06-05 10:05:00,
2013-06-05 06:10:00,57.4,49.5,30.12,NNW,330,2.0,2.0,75,0.00,,,0.00,Wunderground v.1.15,2013-06-05 10:10:00,
2013-06-05 06:20:00,58.2,49.6,30.13,NNW,331,2.0,3.0,73,0.00,,,0.00,Wunderground v.1.15,2013-06-05 10:20:00,
2013-06-05 06:25:00,58.3,49.7,30.13,NNW,333,2.0,3.0,73,0.00,,,0.00,Wunderground v.1.15,2013-06-05 10:25:00,
2013-06-05 06:30:00,58.4,49.8,30.13,NW,322,2.0,2.0,73,0.00,,,0.00,Wunderground v.1.15,2013-06-05 10:30:00,
2013-06-05 06:35:00,58.6,49.2,30.13,NNW,333,2.0,2.0,71,0.00,,,0.00,Wunderground v.1.15,2013-06-05 10:35:00,
2013-06-05 06:40:00,59.1,49.7,30.13,NW,323,2.0,2.0,71,0.00,,,0.00,Wunderground v.1.15,2013-06-05 10:40:00,
2013-06-05 06:50:00,60.0,49.8,30.14,North,8,2.0,3.0,69,0.00,,,0.00,Wunderground v.1.15,2013-06-05 10:50:00,
2013-06-05 06:55:00,60.6,50.0,30.14,North,351,2.0,3.0,68,0.00,,,0.00,Wunderground v.1.15,2013-06-05 10:55:00,
2013-06-05 07:05:00,61.4,49.5,30.14,North,4,3.0,4.0,65,0.00,,,0.00,Wunderground v.1.15,2013-06-05 11:05:00,
2013-06-05 07:10:00,61.8,49.5,30.14,NNE,26,3.0,5.0,64,0.00,,,0.00,Wunderground v.1.15,2013-06-05 11:10:00,
2013-06-05 07:15:00,62.2,49.0,30.15,NNE,18,4.0,7.0,62,0.00,,,0.00,Wunderground v.1.15,2013-06-05 11:15:00,
2013-06-05 07:25:00,62.7,48.2,30.15,ENE,64,5.0,5.0,59,0.00,,,0.00,Wunderground v.1.15,2013-06-05 11:25:00,
2013-06-05 07:30:00,62.8,47.3,30.15,NNE,30,6.0,6.0,57,0.00,,,0.00,Wunderground v.1.15,2013-06-05 11:30:00,
2013-06-05 07:35:00,62.8,47.3,30.15,NNE,22,7.0,7.0,57,0.00,,,0.00,Wunderground v.1.15,2013-06-05 11:35:00,
2013-06-05 07:40:00,62.8,46.9,30.16,ENE,64,7.0,8.0,56,0.00,,,0.00,Wunderground v.1.15,2013-06-05 11:40:00,
2013-06-05 07:45:00,62.7,47.2,30.15,NE,47,7.0,9.0,57,0.00,,,0.00,Wunderground v.1.15,2013-06-05 11:45:00,
2013-06-05 07:50:00,62.8,47.8,30.15,NE,43,8.0,8.0,58,0.00,,,0.00,Wunderground v.1.15,2013-06-05 11:50:00,
2013-06-05 08:00:00,63.0,47.5,30.15,NE,43,7.0,13.0,57,0.00,,,0.00,Wunderground v.1.15,2013-06-05 12:00:00,
2013-06-05 08:05:00,63.1,48.1,30.15,NE,51,7.0,13.0,58,0.00,,,0.00,Wunderground v.1.15,2013-06-05 12:05:00,
2013-06-05 08:15:00,62.7,47.7,30.15,NE,51,8.0,8.0,58,0.00,,,0.00,Wunderground v.1.15,2013-06-05 12:15:00,
2013-06-05 08:20:00,62.8,48.3,30.15,NE,39,8.0,8.0,59,0.00,,,0.00,Wunderground v.1.15,2013-06-05 12:20:00,
2013-06-05 08:25:00,62.8,48.3,30.15,NE,48,8.0,8.0,59,0.00,,,0.00,Wunderground v.1.15,2013-06-05 12:25:00,
2013-06-05 08:35:00,62.8,48.3,30.16,ENE,58,7.0,11.0,59,0.00,,,0.00,Wunderground v.1.15,2013-06-05 12:35:00,
2013-06-05 08:40:00,62.6,49.0,30.16,NNE,22,8.0,8.0,61,0.00,,,0.00,Wunderground v.1.15,2013-06-05 12:40:00,
2013-06-05 08:45:00,62.7,49.1,30.16,North,11,8.0,9.0,61,0.00,,,0.00,Wunderground v.1.15,2013-06-05 12:45:00,
2013-06-05 08:50:00,62.4,49.2,30.16,ENE,67,8.0,10.0,62,0.00,,,0.00,Wunderground v.1.15,2013-06-05 12:50:00,
2013-06-05 08:55:00,62.2,49.9,30.16,ENE,65,8.0,10.0,64,0.00,,,0.00,Wunderground v.1.15,2013-06-05 12:55:00,
2013-06-05 09:05:00,62.3,50.0,30.16,ENE,58,8.0,8.0,64,0.00,,,0.00,Wunderground v.1.15,2013-06-05 13:05:00,
2013-06-05 09:10:00,62.6,50.2,30.17,NE,44,7.0,7.0,64,0.00,,,0.00,Wunderground v.1.15,2013-06-05 13:10:00,
2013-06-05 09:15:00,62.6,50.2,30.17,NNE,20,6.0,7.0,64,0.00,,,0.00,Wunderground v.1.15,2013-06-05 13:15:00,
2013-06-05 09:25:00,62.4,50.5,30.17,NNE,20,7.0,8.0,65,0.00,,,0.00,Wunderground v.1.15,2013-06-05 13:25:00,
2013-06-05 09:30:00,62.4,50.5,30.17,NNE,27,6.0,6.0,65,0.00,,,0.00,Wunderground v.1.15,2013-06-05 13:30:00,
2013-06-05 09:40:00,62.5,50.6,30.17,North,4,7.0,9.0,65,0.00,,,0.00,Wunderground v.1.15,2013-06-05 13:40:00,
2013-06-05 09:45:00,62.5,50.6,30.17,NNE,15,7.0,9.0,65,0.00,,,0.00,Wunderground v.1.15,2013-06-05 13:45:00,
2013-06-05 09:50:00,62.5,51.0,30.18,NE,47,8.0,8.0,66,0.00,,,0.00,Wunderground v.1.15,2013-06-05 13:50:00,
2013-06-05 09:55:00,62.6,51.5,30.17,ENE,68,7.0,8.0,67,0.00,,,0.00,Wunderground v.1.15,2013-06-05 13:55:00,
2013-06-05 10:00:00,62.3,50.8,30.18,NE,53,6.0,6.0,66,0.00,,,0.00,Wunderground v.1.15,2013-06-05 14:00:00,
2013-06-05 10:05:00,62.3,51.2,30.17,NE,39,7.0,7.0,67,0.00,,,0.00,Wunderground v.1.15,2013-06-05 14:05:00,
2013-06-05 10:15:00,62.4,51.3,30.17,NE,51,6.0,6.0,67,0.00,,,0.00,Wunderground v.1.15,2013-06-05 14:15:00,
2013-06-05 10:20:00,62.1,51.4,30.17,ENE,58,7.0,9.0,68,0.00,,,0.00,Wunderground v.1.15,2013-06-05 14:20:00,
2013-06-05 10:30:00,62.2,51.5,30.17,NE,51,7.0,7.0,68,0.00,,,0.00,Wunderground v.1.15,2013-06-05 14:30:00,
2013-06-05 10:35:00,62.5,52.6,30.17,NE,51,7.0,7.0,70,0.00,,,0.00,Wunderground v.1.15,2013-06-05 14:35:00,
2013-06-05 10:40:00,62.7,52.4,30.18,NE,51,6.0,9.0,69,0.00,,,0.00,Wunderground v.1.15,2013-06-05 14:40:00,
2013-06-05 10:50:00,62.2,52.3,30.18,NE,56,7.0,9.0,70,0.00,,,0.00,Wunderground v.1.15,2013-06-05 14:50:00,
2013-06-05 10:55:00,62.2,52.3,30.17,ENE,67,7.0,9.0,70,0.00,,,0.00,Wunderground v.1.15,2013-06-05 14:55:00,
2013-06-05 11:00:00,62.7,53.2,30.17,NE,54,6.0,6.0,71,0.00,,,0.00,Wunderground v.1.15,2013-06-05 15:00:00,
2013-06-05 11:05:00,62.5,52.6,30.17,ENE,61,6.0,6.0,70,0.00,,,0.00,Wunderground v.1.15,2013-06-05 15:05:00,
2013-06-05 11:10:00,62.5,53.3,30.17,ENE,75,6.0,6.0,72,0.00,,,0.00,Wunderground v.1.15,2013-06-05 15:10:00,
2013-06-05 11:20:00,62.3,53.5,30.17,ENE,58,7.0,7.0,73,0.00,,,0.00,Wunderground v.1.15,2013-06-05 15:20:00,
2013-06-05 11:25:00,62.1,53.7,30.17,ENE,58,7.0,9.0,74,0.00,,,0.00,Wunderground v.1.15,2013-06-05 15:25:00,
2013-06-05 11:30:00,62.3,54.3,30.16,ENE,64,7.0,7.0,75,0.00,,,0.00,Wunderground v.1.15,2013-06-05 15:30:00,
2013-06-05 11:40:00,62.3,54.3,30.16,NE,53,6.0,8.0,75,0.00,,,0.00,Wunderground v.1.15,2013-06-05 15:40:00,
2013-06-05 11:45:00,62.4,54.4,30.17,NE,43,6.0,8.0,75,0.00,,,0.00,Wunderground v.1.15,2013-06-05 15:45:00,
2013-06-05 11:55:00,62.7,55.4,30.16,East,92,6.0,9.0,77,0.00,,,0.00,Wunderground v.1.15,2013-06-05 15:55:00,
2013-06-05 12:00:00,62.9,55.6,30.16,East,99,6.0,6.0,77,0.00,,,0.00,Wunderground v.1.15,2013-06-05 16:00:00,
2013-06-05 12:05:00,62.7,55.0,30.16,East,96,6.0,7.0,76,0.00,,,0.00,Wunderground v.1.15,2013-06-05 16:05:00,
2013-06-05 12:10:00,62.4,54.7,30.16,ENE,72,6.0,9.0,76,0.00,,,0.00,Wunderground v.1.15,2013-06-05 16:10:00,
2013-06-05 12:15:00,62.3,55.0,30.16,East,96,7.0,9.0,77,0.00,,,0.00,Wunderground v.1.15,2013-06-05 16:15:00,
2013-06-05 12:20:00,62.5,55.2,30.15,ENE,67,7.0,7.0,77,0.00,,,0.00,Wunderground v.1.15,2013-06-05 16:20:00,
2013-06-05 12:30:00,62.5,55.9,30.15,ENE,64,6.0,7.0,79,0.00,,,0.00,Wunderground v.1.15,2013-06-05 16:30:00,
2013-06-05 12:35:00,62.6,56.0,30.15,ENE,77,6.0,8.0,79,0.00,,,0.00,Wunderground v.1.15,2013-06-05 16:35:00,
2013-06-05 12:40:00,62.6,55.6,30.15,East,93,6.0,7.0,78,0.00,,,0.00,Wunderground v.1.15,2013-06-05 16:40:00,
2013-06-05 12:50:00,62.8,56.2,30.15,ESE,112,6.0,8.0,79,0.00,,,0.00,Wunderground v.1.15,2013-06-05 16:50:00,
2013-06-05 12:55:00,62.8,56.2,30.15,East,93,5.0,8.0,79,0.00,,,0.00,Wunderground v.1.15,2013-06-05 16:55:00,
2013-06-05 13:05:00,62.9,56.3,30.14,ENE,69,5.0,6.0,79,0.00,,,0.00,Wunderground v.1.15,2013-06-05 17:05:00,
2013-06-05 13:10:00,62.8,56.2,30.14,East,85,5.0,5.0,79,0.00,,,0.00,Wunderground v.1.15,2013-06-05 17:10:00,
2013-06-05 13:15:00,62.8,56.2,30.14,ENE,72,5.0,7.0,79,0.00,,,0.00,Wunderground v.1.15,2013-06-05 17:15:00,
2013-06-05 13:20:00,62.8,56.2,30.13,East,89,6.0,6.0,79,0.00,,,0.00,Wunderground v.1.15,2013-06-05 17:20:00,
2013-06-05 13:25:00,62.7,55.4,30.13,East,96,6.0,8.0,77,0.00,,,0.00,Wunderground v.1.15,2013-06-05 17:25:00,
2013-06-05 13:35:00,62.7,56.4,30.13,ESE,106,7.0,7.0,80,0.00,,,0.00,Wunderground v.1.15,2013-06-05 17:35:00,
2013-06-05 13:40:00,62.8,56.2,30.13,ESE,103,6.0,7.0,79,0.00,,,0.00,Wunderground v.1.15,2013-06-05 17:40:00,
2013-06-05 13:50:00,62.6,55.6,30.12,East,88,6.0,6.0,78,0.00,,,0.00,Wunderground v.1.15,2013-06-05 17:50:00,
2013-06-05 13:55:00,62.4,56.1,30.12,ESE,108,6.0,7.0,80,0.00,,,0.00,Wunderground v.1.15,2013-06-05 17:55:00,
2013-06-05 14:00:00,62.2,56.0,30.13,ENE,60,7.0,7.0,80,0.00,,,0.00,Wunderground v.1.15,2013-06-05 18:00:00,
2013-06-05 14:10:00,62.5,56.2,30.13,East,99,6.0,8.0,80,0.00,,,0.00,Wunderground v.1.15,2013-06-05 18:10:00,
2013-06-05 14:15:00,62.4,56.5,30.12,ENE,58,6.0,8.0,81,0.00,,,0.00,Wunderground v.1.15,2013-06-05 18:15:00,
2013-06-05 14:20:00,62.4,56.1,30.12,East,93,6.0,8.0,80,0.00,,,0.00,Wunderground v.1.15,2013-06-05 18:20:00,
2013-06-05 14:25:00,62.6,56.7,30.12,ESE,102,6.0,8.0,81,0.00,,,0.00,Wunderground v.1.15,2013-06-05 18:25:00,
2013-06-05 14:30:00,62.4,56.1,30.12,East,84,7.0,10.0,80,0.00,,,0.00,Wunderground v.1.15,2013-06-05 18:30:00,
2013-06-05 14:35:00,62.3,56.0,30.12,ENE,72,8.0,10.0,80,0.00,,,0.00,Wunderground v.1.15,2013-06-05 18:35:00,
2013-06-05 14:45:00,62.3,55.7,30.13,East,95,8.0,10.0,79,0.00,,,0.00,Wunderground v.1.15,2013-06-05 18:45:00,
2013-06-05 14:50:00,62.2,56.3,30.13,ENE,70,9.0,9.0,81,0.00,,,0.00,Wunderground v.1.15,2013-06-05 18:50:00,
2013-06-05 15:00:00,62.5,55.9,30.13,ENE,70,7.0,7.0,79,0.00,,,0.00,Wunderground v.1.15,2013-06-05 19:00:00,
2013-06-05 15:05:00,62.5,55.9,30.13,ENE,76,7.0,7.0,79,0.00,,,0.00,Wunderground v.1.15,2013-06-05 19:05:00,
2013-06-05 15:10:00,62.6,56.3,30.13,ENE,75,7.0,7.0,80,0.00,,,0.00,Wunderground v.1.15,2013-06-05 19:10:00,
2013-06-05 15:20:00,62.4,56.1,30.12,East,92,7.0,10.0,80,0.00,,,0.00,Wunderground v.1.15,2013-06-05 19:20:00,
2013-06-05 15:30:00,62.8,56.2,30.12,East,97,6.0,7.0,79,0.00,,,0.00,Wunderground v.1.15,2013-06-05 19:30:00,
2013-06-05 15:35:00,62.8,56.2,30.11,East,92,7.0,7.0,79,0.00,,,0.00,Wunderground v.1.15,2013-06-05 19:35:00,
2013-06-05 15:45:00,62.5,56.2,30.11,ESE,103,7.0,8.0,80,0.00,,,0.00,Wunderground v.1.15,2013-06-05 19:45:00,
2013-06-05 15:55:00,62.8,57.2,30.11,East,93,7.0,7.0,82,0.00,,,0.00,Wunderground v.1.15,2013-06-05 19:55:00,
2013-06-05 16:05:00,62.5,56.6,30.11,ENE,69,7.0,7.0,81,0.00,,,0.00,Wunderground v.1.15,2013-06-05 20:05:00,
2013-06-05 16:10:00,62.7,56.4,30.11,ENE,78,6.0,6.0,80,0.00,,,0.00,Wunderground v.1.15,2013-06-05 20:10:00,
2013-06-05 16:15:00,62.7,56.8,30.11,East,88,6.0,6.0,81,0.00,,,0.00,Wunderground v.1.15,2013-06-05 20:15:00,
2013-06-05 16:20:00,62.7,56.8,30.11,ENE,64,6.0,6.0,81,0.00,,,0.00,Wunderground v.1.15,2013-06-05 20:20:00,
2013-06-05 16:30:00,62.8,56.9,30.11,NE,47,6.0,7.0,81,0.00,,,0.00,Wunderground v.1.15,2013-06-05 20:30:00,
2013-06-05 16:35:00,62.8,56.9,30.11,East,79,6.0,9.0,81,0.00,,,0.00,Wunderground v.1.15,2013-06-05 20:35:00,
2013-06-05 16:40:00,62.7,56.8,30.11,ENE,72,6.0,6.0,81,0.00,,,0.00,Wunderground v.1.15,2013-06-05 20:40:00,
2013-06-05 16:45:00,62.7,56.8,30.11,East,95,6.0,6.0,81,0.00,,,0.00,Wunderground v.1.15,2013-06-05 20:45:00,
2013-06-05 16:50:00,62.7,56.8,30.11,ESE,103,6.0,7.0,81,0.00,,,0.00,Wunderground v.1.15,2013-06-05 20:50:00,
2013-06-05 16:55:00,62.7,56.8,30.11,ESE,110,6.0,7.0,81,0.00,,,0.00,Wunderground v.1.15,2013-06-05 20:55:00,
2013-06-05 17:05:00,62.8,56.9,30.11,NE,54,5.0,5.0,81,0.00,,,0.00,Wunderground v.1.15,2013-06-05 21:05:00,
2013-06-05 17:15:00,62.7,56.4,30.11,East,79,5.0,5.0,80,0.00,,,0.00,Wunderground v.1.15,2013-06-05 21:15:00,
2013-06-05 17:20:00,62.7,56.4,30.11,East,86,5.0,6.0,80,0.00,,,0.00,Wunderground v.1.15,2013-06-05 21:20:00,
2013-06-05 17:25:00,62.7,56.4,30.11,East,94,5.0,7.0,80,0.00,,,0.00,Wunderground v.1.15,2013-06-05 21:25:00,
2013-06-05 17:30:00,62.6,56.3,30.12,East,82,5.0,5.0,80,0.00,,,0.00,Wunderground v.1.15,2013-06-05 21:30:00,
2013-06-05 17:40:00,62.8,56.9,30.11,East,93,5.0,5.0,81,0.00,,,0.00,Wunderground v.1.15,2013-06-05 21:40:00,
2013-06-05 17:45:00,62.7,56.8,30.11,ESE,111,4.0,5.0,81,0.00,,,0.00,Wunderground v.1.15,2013-06-05 21:45:00,
2013-06-05 17:50:00,62.7,56.8,30.11,ESE,105,5.0,5.0,81,0.00,,,0.00,Wunderground v.1.15,2013-06-05 21:50:00,
2013-06-05 17:55:00,62.7,56.8,30.11,ESE,120,5.0,7.0,81,0.00,,,0.00,Wunderground v.1.15,2013-06-05 21:55:00,
2013-06-05 18:00:00,62.6,57.0,30.10,ESE,109,5.0,5.0,82,0.00,,,0.00,Wunderground v.1.15,2013-06-05 22:00:00,
2013-06-05 18:10:00,62.4,57.2,30.11,ESE,113,5.0,5.0,83,0.00,,,0.00,Wunderground v.1.15,2013-06-05 22:10:00,
2013-06-05 18:15:00,62.4,57.5,30.11,SE,125,4.0,5.0,84,0.00,,,0.00,Wunderground v.1.15,2013-06-05 22:15:00,
2013-06-05 18:25:00,62.2,57.3,30.12,East,96,5.0,8.0,84,0.00,,,0.00,Wunderground v.1.15,2013-06-05 22:25:00,
2013-06-05 18:30:00,62.1,57.2,30.11,ESE,110,5.0,5.0,84,0.00,,,0.00,Wunderground v.1.15,2013-06-05 22:30:00,
2013-06-05 18:35:00,62.2,57.3,30.11,ESE,123,5.0,5.0,84,0.00,,,0.00,Wunderground v.1.15,2013-06-05 22:35:00,
2013-06-05 18:45:00,62.4,57.5,30.11,East,93,4.0,7.0,84,0.00,,,0.00,Wunderground v.1.15,2013-06-05 22:45:00,
2013-06-05 18:50:00,62.5,57.6,30.11,SE,132,4.0,4.0,84,0.00,,,0.00,Wunderground v.1.15,2013-06-05 22:50:00,
2013-06-05 18:55:00,62.6,58.0,30.11,ESE,117,4.0,4.0,85,0.00,,,0.00,Wunderground v.1.15,2013-06-05 22:55:00,
2013-06-05 19:00:00,62.5,57.9,30.11,ESE,117,4.0,4.0,85,0.00,,,0.00,Wunderground v.1.15,2013-06-05 23:00:00,
2013-06-05 19:05:00,62.4,57.8,30.10,East,98,4.0,4.0,85,0.00,,,0.00,Wunderground v.1.15,2013-06-05 23:05:00,
2013-06-05 19:10:00,62.3,58.1,30.10,SE,144,4.0,4.0,86,0.00,,,0.00,Wunderground v.1.15,2013-06-05 23:10:00,
2013-06-05 19:20:00,62.3,58.1,30.10,SE,139,3.0,3.0,86,0.00,,,0.00,Wunderground v.1.15,2013-06-05 23:20:00,
2013-06-05 19:25:00,62.3,58.4,30.10,SE,125,3.0,3.0,87,0.00,,,0.00,Wunderground v.1.15,2013-06-05 23:25:00,
2013-06-05 19:35:00,62.4,58.5,30.10,SSE,150,3.0,4.0,87,0.00,,,0.00,Wunderground v.1.15,2013-06-05 23:35:00,
2013-06-05 19:40:00,62.4,58.5,30.10,ESE,120,3.0,3.0,87,0.00,,,0.00,Wunderground v.1.15,2013-06-05 23:40:00,
2013-06-05 19:45:00,62.5,58.9,30.10,SE,134,3.0,3.0,88,0.00,,,0.00,Wunderground v.1.15,2013-06-05 23:45:00,
2013-06-05 19:55:00,62.4,58.8,30.10,SE,145,2.0,4.0,88,0.00,,,0.00,Wunderground v.1.15,2013-06-05 23:55:00,
2013-06-05 20:00:00,62.1,58.5,30.10,SSE,160,3.0,3.0,88,0.00,,,0.00,Wunderground v.1.15,2013-06-06 00:00:00,
2013-06-05 20:05:00,61.8,58.5,30.10,SE,135,2.0,3.0,89,0.00,,,0.00,Wunderground v.1.15,2013-06-06 00:05:00,
2013-06-05 20:10:00,61.4,58.1,30.10,SSE,148,2.0,2.0,89,0.00,,,0.00,Wunderground v.1.15,2013-06-06 00:10:00,
2013-06-05 20:15:00,61.2,58.2,30.10,SE,145,2.0,2.0,90,0.00,,,0.00,Wunderground v.1.15,2013-06-06 00:15:00,
2013-06-05 20:25:00,60.8,58.2,30.11,SE,143,2.0,2.0,91,0.00,,,0.00,Wunderground v.1.15,2013-06-06 00:25:00,
2013-06-05 20:30:00,60.7,58.1,30.10,SE,142,1.0,1.0,91,0.00,,,0.00,Wunderground v.1.15,2013-06-06 00:30:00,
2013-06-05 20:35:00,60.6,58.3,30.10,SE,128,0.0,1.0,92,0.00,,,0.00,Wunderground v.1.15,2013-06-06 00:35:00,
2013-06-05 20:45:00,60.5,58.5,30.10,ESE,120,1.0,2.0,93,0.00,,,0.00,Wunderground v.1.15,2013-06-06 00:45:00,
2013-06-05 20:50:00,60.5,58.5,30.10,ESE,120,1.0,1.0,93,0.00,,,0.00,Wunderground v.1.15,2013-06-06 00:50:00,
2013-06-05 20:55:00,60.5,58.5,30.10,SE,124,1.0,2.0,93,0.00,,,0.00,Wunderground v.1.15,2013-06-06 00:55:00,
2013-06-05 21:00:00,60.5,58.5,30.10,ESE,115,1.0,2.0,93,0.00,,,0.00,Wunderground v.1.15,2013-06-06 01:00:00,
2013-06-05 21:05:00,60.4,58.4,30.10,ESE,115,1.0,2.0,93,0.00,,,0.00,Wunderground v.1.15,2013-06-06 01:05:00,
2013-06-05 21:10:00,60.4,58.4,30.10,ESE,106,1.0,2.0,93,0.00,,,0.00,Wunderground v.1.15,2013-06-06 01:10:00,
2013-06-05 21:15:00,60.4,58.7,30.10,SE,129,1.0,2.0,94,0.00,,,0.00,Wunderground v.1.15,2013-06-06 01:15:00,
2013-06-05 21:20:00,60.4,58.7,30.10,SE,129,2.0,3.0,94,0.00,,,0.00,Wunderground v.1.15,2013-06-06 01:20:00,
2013-06-05 21:25:00,60.3,58.6,30.11,ESE,117,2.0,3.0,94,0.00,,,0.00,Wunderground v.1.15,2013-06-06 01:25:00,
2013-06-05 21:35:00,60.3,58.6,30.11,SE,125,2.0,3.0,94,0.00,,,0.00,Wunderground v.1.15,2013-06-06 01:35:00,
2013-06-05 21:40:00,60.2,58.5,30.11,ESE,113,2.0,3.0,94,0.00,,,0.00,Wunderground v.1.15,2013-06-06 01:40:00,
2013-06-05 21:45:00,60.2,58.5,30.11,SE,124,3.0,3.0,94,0.00,,,0.00,Wunderground v.1.15,2013-06-06 01:45:00,
2013-06-05 21:55:00,60.0,58.3,30.12,SE,136,3.0,3.0,94,0.00,,,0.00,Wunderground v.1.15,2013-06-06 01:55:00,
2013-06-05 22:00:00,59.9,58.5,30.11,SE,136,3.0,4.0,95,0.00,,,0.00,Wunderground v.1.15,2013-06-06 02:00:00,
2013-06-05 22:10:00,59.9,58.5,30.11,SE,145,4.0,4.0,95,0.00,,,0.00,Wunderground v.1.15,2013-06-06 02:10:00,
2013-06-05 22:15:00,59.9,58.5,30.11,SE,135,3.0,4.0,95,0.00,,,0.00,Wunderground v.1.15,2013-06-06 02:15:00,
2013-06-05 22:20:00,59.9,58.5,30.11,SE,131,3.0,3.0,95,0.00,,,0.00,Wunderground v.1.15,2013-06-06 02:20:00,
2013-06-05 22:25:00,59.9,58.8,30.11,ESE,108,3.0,3.0,96,0.00,,,0.00,Wunderground v.1.15,2013-06-06 02:25:00,
2013-06-05 22:30:00,60.0,58.9,30.11,ESE,117,3.0,3.0,96,0.00,,,0.00,Wunderground v.1.15,2013-06-06 02:30:00,
2013-06-05 22:40:00,60.0,58.9,30.11,SE,142,2.0,2.0,96,0.00,,,0.00,Wunderground v.1.15,2013-06-06 02:40:00,
2013-06-05 22:45:00,60.0,58.9,30.11,SE,129,2.0,2.0,96,0.00,,,0.00,Wunderground v.1.15,2013-06-06 02:45:00,
2013-06-05 22:50:00,59.9,58.8,30.11,SE,145,2.0,2.0,96,0.00,,,0.00,Wunderground v.1.15,2013-06-06 02:50:00,
2013-06-05 22:55:00,59.9,58.8,30.11,SE,139,2.0,2.0,96,0.00,,,0.00,Wunderground v.1.15,2013-06-06 02:55:00,
2013-06-05 23:05:00,59.9,58.8,30.11,SE,140,2.0,2.0,96,0.00,,,0.00,Wunderground v.1.15,2013-06-06 03:05:00,
2013-06-05 23:15:00,59.9,58.8,30.11,SE,126,1.0,2.0,96,0.00,,,0.00,Wunderground v.1.15,2013-06-06 03:15:00,
2013-06-05 23:20:00,59.9,58.8,30.11,SE,124,1.0,1.0,96,0.00,,,0.00,Wunderground v.1.15,2013-06-06 03:20:00,
2013-06-05 23:25:00,59.9,58.8,30.11,SE,135,1.0,1.0,96,0.00,,,0.00,Wunderground v.1.15,2013-06-06 03:25:00,
2013-06-05 23:30:00,59.9,58.8,30.11,SE,134,1.0,1.0,96,0.00,,,0.00,Wunderground v.1.15,2013-06-06 03:30:00,
2013-06-05 23:35:00,59.9,59.0,30.11,ESE,122,1.0,1.0,97,0.00,,,0.00,Wunderground v.1.15,2013-06-06 03:35:00,
2013-06-05 23:40:00,59.8,58.9,30.11,SE,135,1.0,1.0,97,0.00,,,0.00,Wunderground v.1.15,2013-06-06 03:40:00,
2013-06-05 23:50:00,59.8,58.9,30.11,SSE,160,1.0,1.0,97,0.00,,,0.00,Wunderground v.1.15,2013-06-06 03:50:00,
2013-06-05 23:55:00,59.9,59.0,30.11,SE,135,1.0,1.0,97,0.00,,,0.00,Wunderground v.1.15,2013-06-06 03:55:00,